PBD434 USPP-UUWW

Flight info

Callsign PBD434
Flight time 1h 43m
Altitude 36000
Route ULPET1L ULPET W63 INGEN M864 KERUN P164 IDMOR M864 IBROT T535 URIDU L158 DIMGI DIMGI3B
Aircraft B738/M-SDE2E3FGHIRWXY/LB1

Departure

Time 2026-04-23 16:55
Airport Perm International Airport (USPP)

Arrival

Time 2026-04-23 18:39
Airport Vnukovo International Airport (UUWW)
Time Latitude Longitude Altitude Speed Heading
2026-04-23 16:22 57.91908 56.02091 393 ft 0 kts 316°
2026-04-23 16:44 57.91895 56.02118 393 ft 4 kts 304°
2026-04-23 16:45 57.91885 56.02162 394 ft 4 kts 274°
2026-04-23 16:45 57.91889 56.02208 395 ft 4 kts 233°
2026-04-23 16:45 57.91894 56.02218 395 ft 0 kts 225°
2026-04-23 16:50 57.91886 56.02203 394 ft 5 kts 225°
2026-04-23 16:50 57.91830 56.02204 396 ft 10 kts 143°
2026-04-23 16:50 57.91775 56.02303 396 ft 12 kts 136°
2026-04-23 16:51 57.91706 56.02426 396 ft 13 kts 136°
2026-04-23 16:51 57.91670 56.02536 399 ft 10 kts 86°
2026-04-23 16:51 57.91715 56.02649 397 ft 13 kts 46°
2026-04-23 16:51 57.91796 56.02806 398 ft 20 kts 45°
2026-04-23 16:52 57.91897 56.02999 399 ft 20 kts 45°
2026-04-23 16:52 57.91994 56.03187 400 ft 20 kts 46°
2026-04-23 16:52 57.92088 56.03369 398 ft 19 kts 46°
2026-04-23 16:52 57.92179 56.03545 402 ft 18 kts 45°
2026-04-23 16:53 57.92267 56.03716 402 ft 18 kts 46°
2026-04-23 16:53 57.92353 56.03880 401 ft 17 kts 43°
2026-04-23 16:53 57.92418 56.03970 401 ft 10 kts 34°
2026-04-23 16:53 57.92421 56.04007 398 ft 2 kts 149°
2026-04-23 16:54 57.92408 56.03992 398 ft 2 kts 219°
2026-04-23 16:54 57.92403 56.03983 398 ft 0 kts 226°
2026-04-23 16:54 57.92380 56.03938 397 ft 14 kts 226°
2026-04-23 16:54 57.92140 56.03471 397 ft 85 kts 226°
2026-04-23 16:55 57.91574 56.02376 398 ft 146 kts 226°
2026-04-23 16:55 57.90760 56.00798 582 ft 180 kts 226°
2026-04-23 16:55 57.89880 55.99130 1421 ft 176 kts 225°
2026-04-23 16:55 57.89030 55.97510 2372 ft 173 kts 227°
2026-04-23 16:56 57.88172 55.95855 3012 ft 186 kts 228°
2026-04-23 16:56 57.87209 55.93987 3236 ft 211 kts 227°
2026-04-23 16:56 57.86132 55.91899 3550 ft 235 kts 227°
2026-04-23 16:56 57.85042 55.89527 4230 ft 243 kts 238°
2026-04-23 16:57 57.84104 55.86863 5043 ft 247 kts 236°
2026-04-23 16:57 57.83085 55.84204 5744 ft 254 kts 235°
2026-04-23 16:57 57.82035 55.81520 6580 ft 256 kts 235°
2026-04-23 16:57 57.80979 55.78832 7404 ft 258 kts 235°
2026-04-23 16:58 57.79905 55.76097 8193 ft 262 kts 235°
2026-04-23 16:58 57.78818 55.73328 8986 ft 265 kts 235°
2026-04-23 16:58 57.77717 55.70519 9781 ft 269 kts 235°
2026-04-23 16:58 57.76573 55.67601 10092 ft 290 kts 235°
2026-04-23 16:59 57.75334 55.64441 10302 ft 312 kts 235°
2026-04-23 16:59 57.74002 55.61045 10500 ft 333 kts 234°
2026-04-23 16:59 57.72607 55.57496 11021 ft 342 kts 234°
2026-04-23 16:59 57.71192 55.53904 11765 ft 344 kts 234°
2026-04-23 17:00 57.69766 55.50288 12550 ft 346 kts 234°
2026-04-23 17:00 57.68817 55.47887 13059 ft 348 kts 234°
2026-04-23 17:00 57.66887 55.43004 13962 ft 351 kts 234°
2026-04-23 17:00 57.65430 55.39323 14639 ft 353 kts 234°
2026-04-23 17:01 57.63981 55.35670 15288 ft 356 kts 234°
2026-04-23 17:01 57.62505 55.31952 15920 ft 358 kts 234°
2026-04-23 17:01 57.61013 55.28200 16576 ft 360 kts 234°
2026-04-23 17:01 57.59524 55.24459 17313 ft 360 kts 234°
2026-04-23 17:02 57.58508 55.21911 17666 ft 364 kts 234°
2026-04-23 17:02 57.56489 55.16857 18334 ft 370 kts 234°
2026-04-23 17:02 57.54947 55.13003 18861 ft 372 kts 234°
2026-04-23 17:02 57.53395 55.09130 19358 ft 375 kts 234°
2026-04-23 17:03 57.51827 55.05224 19862 ft 378 kts 234°
2026-04-23 17:03 57.50247 55.01292 20378 ft 381 kts 233°
2026-04-23 17:03 57.48653 54.97333 20856 ft 384 kts 233°
2026-04-23 17:03 57.47045 54.93343 21320 ft 387 kts 233°
2026-04-23 17:04 57.45422 54.89324 21797 ft 390 kts 233°
2026-04-23 17:04 57.43784 54.85280 22263 ft 393 kts 233°
2026-04-23 17:04 57.42126 54.81228 22704 ft 396 kts 233°
2026-04-23 17:04 57.40424 54.77178 23140 ft 399 kts 232°
2026-04-23 17:05 57.38698 54.73115 23505 ft 402 kts 232°
2026-04-23 17:05 57.36962 54.69038 23861 ft 405 kts 232°
2026-04-23 17:05 57.35211 54.64926 24209 ft 408 kts 232°
2026-04-23 17:05 57.33453 54.60793 24526 ft 411 kts 232°
2026-04-23 17:06 57.31678 54.56624 24864 ft 413 kts 232°
2026-04-23 17:06 57.29895 54.52437 25202 ft 416 kts 232°
2026-04-23 17:06 57.28099 54.48227 25514 ft 418 kts 232°
2026-04-23 17:06 57.26288 54.43987 25815 ft 421 kts 232°
2026-04-23 17:07 57.24465 54.39727 26128 ft 424 kts 232°
2026-04-23 17:07 57.22634 54.35454 26430 ft 426 kts 232°
2026-04-23 17:07 57.20787 54.31156 26736 ft 429 kts 232°
2026-04-23 17:07 57.18925 54.26835 27015 ft 431 kts 232°
2026-04-23 17:08 57.17047 54.22507 27297 ft 434 kts 231°
2026-04-23 17:08 57.15795 54.19632 27483 ft 435 kts 231°
2026-04-23 17:08 57.13278 54.13859 27844 ft 438 kts 231°
2026-04-23 17:08 57.11362 54.09471 28128 ft 440 kts 231°
2026-04-23 17:09 57.09448 54.05088 28518 ft 439 kts 231°
2026-04-23 17:09 57.07538 54.00724 28960 ft 438 kts 231°
2026-04-23 17:09 57.05633 53.96379 29350 ft 437 kts 231°
2026-04-23 17:09 57.03730 53.92017 29687 ft 438 kts 231°
2026-04-23 17:10 57.01832 53.87650 29948 ft 438 kts 231°
2026-04-23 17:10 56.99932 53.83277 30251 ft 438 kts 232°
2026-04-23 17:10 56.98034 53.78915 30540 ft 438 kts 231°
2026-04-23 17:10 56.96132 53.74554 30803 ft 438 kts 231°
2026-04-23 17:11 56.94228 53.70198 31071 ft 438 kts 231°
2026-04-23 17:11 56.92319 53.65842 31360 ft 438 kts 231°
2026-04-23 17:11 56.90410 53.61490 31623 ft 438 kts 231°
2026-04-23 17:11 56.88499 53.57144 31883 ft 439 kts 231°
2026-04-23 17:12 56.87232 53.54268 32057 ft 439 kts 231°
2026-04-23 17:12 56.84936 53.48130 32388 ft 439 kts 244°
2026-04-23 17:12 56.83853 53.42924 32658 ft 439 kts 254°
2026-04-23 17:12 56.83280 53.37451 32906 ft 441 kts 265°
2026-04-23 17:13 56.83231 53.31838 33138 ft 442 kts 269°
2026-04-23 17:13 56.83275 53.26228 33394 ft 442 kts 269°
2026-04-23 17:13 56.83324 53.20619 33648 ft 442 kts 269°
2026-04-23 17:13 56.83354 53.15012 33827 ft 442 kts 269°
2026-04-23 17:14 56.83362 53.09396 34011 ft 442 kts 269°
2026-04-23 17:14 56.83358 53.03775 34210 ft 442 kts 268°
2026-04-23 17:14 56.83347 52.98231 34385 ft 443 kts 268°
2026-04-23 17:14 56.83337 52.94438 34498 ft 443 kts 268°
2026-04-23 17:15 56.83306 52.86976 34739 ft 443 kts 268°
2026-04-23 17:15 56.83269 52.81348 34907 ft 444 kts 268°
2026-04-23 17:15 56.83228 52.75715 35083 ft 444 kts 268°
2026-04-23 17:15 56.83184 52.70067 35258 ft 444 kts 268°
2026-04-23 17:16 56.83154 52.66259 35372 ft 444 kts 268°
2026-04-23 17:16 56.83108 52.60609 35533 ft 445 kts 268°
2026-04-23 17:16 56.83011 52.49276 35590 ft 448 kts 268°
2026-04-23 17:17 56.82905 52.38008 35586 ft 445 kts 268°
2026-04-23 17:17 56.82791 52.26756 35589 ft 442 kts 268°
2026-04-23 17:18 56.82726 52.09979 35586 ft 440 kts 270°
2026-04-23 17:19 56.82943 51.98824 35589 ft 440 kts 271°
2026-04-23 17:19 56.83138 51.87651 35591 ft 441 kts 270°
2026-04-23 17:20 56.83289 51.76443 35582 ft 442 kts 270°
2026-04-23 17:21 56.83547 51.53883 35572 ft 446 kts 269°
2026-04-23 17:21 56.83018 51.36879 35573 ft 448 kts 264°
2026-04-23 17:22 56.82286 51.19855 35566 ft 449 kts 265°
2026-04-23 17:23 56.81596 51.02869 35563 ft 449 kts 265°
2026-04-23 17:24 56.80896 50.85847 35557 ft 448 kts 265°
2026-04-23 17:24 56.80174 50.68872 35551 ft 446 kts 264°
2026-04-23 17:25 56.79430 50.51971 35547 ft 445 kts 264°
2026-04-23 17:26 56.78406 50.29524 35543 ft 443 kts 264°
2026-04-23 17:27 56.77614 50.12731 35539 ft 443 kts 264°
2026-04-23 17:27 56.77073 50.01539 35536 ft 443 kts 264°
2026-04-23 17:28 56.76525 49.90347 35532 ft 443 kts 264°
2026-04-23 17:28 56.75979 49.79152 35530 ft 444 kts 265°
2026-04-23 17:29 56.75666 49.67901 35529 ft 445 kts 266°
2026-04-23 17:30 56.75282 49.51000 35525 ft 446 kts 266°
2026-04-23 17:30 56.74771 49.34082 35519 ft 446 kts 264°
2026-04-23 17:31 56.74038 49.22862 35521 ft 446 kts 262°
2026-04-23 17:31 56.73208 49.11668 35512 ft 446 kts 262°
2026-04-23 17:32 56.72406 49.00537 35509 ft 446 kts 262°
2026-04-23 17:32 56.71616 48.89319 35507 ft 446 kts 262°
2026-04-23 17:33 56.70827 48.78116 35507 ft 446 kts 262°
2026-04-23 17:33 56.70029 48.66918 35503 ft 446 kts 262°
2026-04-23 17:34 56.69220 48.55725 35501 ft 446 kts 262°
2026-04-23 17:35 56.67988 48.38965 35493 ft 445 kts 261°
2026-04-23 17:35 56.66734 48.22226 35489 ft 445 kts 261°
2026-04-23 17:36 56.65886 48.11082 35490 ft 445 kts 261°
2026-04-23 17:36 56.65030 47.99957 35492 ft 445 kts 261°
2026-04-23 17:37 56.64163 47.88828 35483 ft 445 kts 261°
2026-04-23 17:38 56.62844 47.72160 35484 ft 445 kts 261°
2026-04-23 17:38 56.61953 47.61045 35484 ft 445 kts 261°
2026-04-23 17:39 56.61051 47.49940 35481 ft 445 kts 261°
2026-04-23 17:39 56.60144 47.38893 35481 ft 445 kts 261°
2026-04-23 17:40 56.59216 47.27714 35475 ft 445 kts 260°
2026-04-23 17:40 56.58283 47.16596 35482 ft 446 kts 260°
2026-04-23 17:41 56.57346 47.05562 35474 ft 446 kts 260°
2026-04-23 17:41 56.55912 46.88893 35469 ft 446 kts 260°
2026-04-23 17:42 56.54458 46.72235 35466 ft 446 kts 260°
2026-04-23 17:43 56.53420 46.61158 35458 ft 446 kts 256°
2026-04-23 17:43 56.51407 46.50573 35465 ft 444 kts 248°
2026-04-23 17:44 56.49176 46.40153 35461 ft 444 kts 248°
2026-04-23 17:44 56.45862 46.24504 35455 ft 444 kts 249°
2026-04-23 17:45 56.42571 46.08856 35454 ft 444 kts 248°
2026-04-23 17:46 56.39263 45.93238 35447 ft 444 kts 248°
2026-04-23 17:46 56.37049 45.82857 35446 ft 444 kts 248°
2026-04-23 17:47 56.34824 45.72475 35447 ft 444 kts 248°
2026-04-23 17:48 56.31472 45.56935 35443 ft 443 kts 248°
2026-04-23 17:48 56.29228 45.46587 35449 ft 443 kts 248°
2026-04-23 17:49 56.26976 45.36258 35435 ft 443 kts 248°
2026-04-23 17:49 56.24719 45.25960 35435 ft 442 kts 248°
2026-04-23 17:50 56.22459 45.15694 35435 ft 441 kts 247°
2026-04-23 17:50 56.19064 45.00346 35433 ft 440 kts 247°
2026-04-23 17:51 56.16796 44.90155 35431 ft 440 kts 247°
2026-04-23 17:52 56.13377 44.74874 35425 ft 440 kts 247°
2026-04-23 17:52 56.10786 44.59121 35426 ft 443 kts 262°
2026-04-23 17:53 56.09871 44.42620 35421 ft 445 kts 263°
2026-04-23 17:54 56.09235 44.31588 35417 ft 446 kts 262°
2026-04-23 17:54 56.08216 44.15015 35414 ft 447 kts 262°
2026-04-23 17:55 56.07162 43.98395 35413 ft 448 kts 262°
2026-04-23 17:56 56.06453 43.87382 35417 ft 449 kts 262°
2026-04-23 17:56 56.05361 43.70721 35415 ft 449 kts 262°
2026-04-23 17:57 56.04621 43.59621 35412 ft 450 kts 262°
2026-04-23 17:58 56.03494 43.42977 35410 ft 450 kts 262°
2026-04-23 17:58 56.02837 43.31856 35400 ft 451 kts 268°
2026-04-23 17:59 56.03005 43.20655 35398 ft 451 kts 271°
2026-04-23 17:59 56.03247 43.09436 35401 ft 451 kts 270°
2026-04-23 18:00 56.03442 42.98221 35403 ft 451 kts 270°
2026-04-23 18:00 56.03604 42.86997 35405 ft 452 kts 270°
2026-04-23 18:01 56.03754 42.75766 35402 ft 452 kts 270°
2026-04-23 18:01 56.03898 42.64520 35398 ft 453 kts 270°
2026-04-23 18:02 56.03785 42.55182 35395 ft 451 kts 261°
2026-04-23 18:02 56.02121 42.44447 35421 ft 448 kts 247°
2026-04-23 18:03 55.99314 42.32477 35402 ft 449 kts 246°
2026-04-23 18:03 55.97295 42.23841 35396 ft 450 kts 246°
2026-04-23 18:04 55.94909 42.13500 35403 ft 451 kts 247°
2026-04-23 18:04 55.92537 42.03208 35405 ft 452 kts 247°
2026-04-23 18:05 55.90139 41.92852 35402 ft 452 kts 247°
2026-04-23 18:05 55.87743 41.82477 35399 ft 453 kts 250°
2026-04-23 18:06 55.86454 41.71523 35401 ft 455 kts 265°
2026-04-23 18:06 55.86159 41.60266 35401 ft 456 kts 266°
2026-04-23 18:07 55.85876 41.48988 35402 ft 456 kts 266°
2026-04-23 18:07 55.85543 41.37718 35407 ft 456 kts 266°
2026-04-23 18:08 55.85187 41.26434 35401 ft 456 kts 266°
2026-04-23 18:08 55.84814 41.15152 35406 ft 456 kts 266°
2026-04-23 18:09 55.84427 41.03864 35211 ft 460 kts 266°
2026-04-23 18:09 55.84228 40.98197 34971 ft 457 kts 265°
2026-04-23 18:09 55.84029 40.92569 34816 ft 454 kts 265°
2026-04-23 18:09 55.83829 40.86972 34712 ft 454 kts 265°
2026-04-23 18:10 55.83625 40.81358 34600 ft 456 kts 265°
2026-04-23 18:10 55.83417 40.75721 34491 ft 457 kts 265°
2026-04-23 18:10 55.83208 40.70080 34377 ft 458 kts 265°
2026-04-23 18:10 55.82996 40.64423 34269 ft 459 kts 265°
2026-04-23 18:11 55.82779 40.58745 34157 ft 460 kts 265°
2026-04-23 18:11 55.82554 40.53061 33725 ft 461 kts 265°
2026-04-23 18:11 55.82324 40.47384 33130 ft 460 kts 265°
2026-04-23 18:11 55.82091 40.41702 32373 ft 461 kts 264°
2026-04-23 18:12 55.81856 40.36030 31706 ft 459 kts 264°
2026-04-23 18:12 55.81623 40.30471 31268 ft 453 kts 264°
2026-04-23 18:12 55.81389 40.24912 30761 ft 449 kts 263°
2026-04-23 18:12 55.81154 40.19406 30292 ft 444 kts 263°
2026-04-23 18:13 55.80919 40.13954 29818 ft 440 kts 263°
2026-04-23 18:13 55.80684 40.08566 29325 ft 435 kts 262°
2026-04-23 18:13 55.80450 40.03268 28781 ft 430 kts 262°
2026-04-23 18:13 55.80216 39.98006 28291 ft 424 kts 262°
2026-04-23 18:14 55.79983 39.92826 27810 ft 418 kts 262°
2026-04-23 18:14 55.79754 39.87754 27663 ft 405 kts 262°
2026-04-23 18:14 55.79528 39.82814 27428 ft 395 kts 261°
2026-04-23 18:14 55.79026 39.78078 27029 ft 386 kts 250°
2026-04-23 18:15 55.78205 39.73566 26924 ft 385 kts 249°
2026-04-23 18:15 55.77340 39.68994 26816 ft 397 kts 249°
2026-04-23 18:15 55.76455 39.64357 26721 ft 406 kts 249°
2026-04-23 18:15 55.75538 39.59524 26615 ft 408 kts 249°
2026-04-23 18:16 55.74643 39.54766 26500 ft 405 kts 249°
2026-04-23 18:16 55.73767 39.50083 26395 ft 404 kts 249°
2026-04-23 18:16 55.72874 39.45306 26286 ft 402 kts 249°
2026-04-23 18:17 55.71121 39.35926 26078 ft 399 kts 249°
2026-04-23 18:17 55.70259 39.31325 25987 ft 398 kts 249°
2026-04-23 18:17 55.69384 39.26668 25874 ft 398 kts 249°
2026-04-23 18:17 55.68505 39.22006 25655 ft 401 kts 249°
2026-04-23 18:18 55.67618 39.17314 25402 ft 403 kts 249°
2026-04-23 18:18 55.66728 39.12616 25139 ft 400 kts 249°
2026-04-23 18:18 55.65849 39.07982 24897 ft 394 kts 249°
2026-04-23 18:18 55.64981 39.03416 24640 ft 390 kts 249°
2026-04-23 18:19 55.64115 38.98872 24397 ft 389 kts 249°
2026-04-23 18:19 55.63249 38.94348 24154 ft 388 kts 249°
2026-04-23 18:19 55.62381 38.89820 23916 ft 387 kts 249°
2026-04-23 18:19 55.61515 38.85315 23670 ft 387 kts 248°
2026-04-23 18:20 55.60650 38.80824 23432 ft 385 kts 248°
2026-04-23 18:20 55.59786 38.76348 23202 ft 384 kts 248°
2026-04-23 18:20 55.58922 38.71880 22956 ft 383 kts 248°
2026-04-23 18:20 55.58059 38.67436 22670 ft 382 kts 248°
2026-04-23 18:21 55.57199 38.63013 22384 ft 380 kts 248°
2026-04-23 18:21 55.56340 38.58603 22106 ft 379 kts 249°
2026-04-23 18:21 55.55481 38.54204 21829 ft 378 kts 249°
2026-04-23 18:21 55.54624 38.49824 21552 ft 377 kts 249°
2026-04-23 18:22 55.53768 38.45461 21277 ft 375 kts 249°
2026-04-23 18:22 55.52915 38.41121 21006 ft 374 kts 249°
2026-04-23 18:22 55.52061 38.36788 20732 ft 373 kts 249°
2026-04-23 18:22 55.51217 38.32537 20371 ft 363 kts 249°
2026-04-23 18:23 55.50663 38.29760 20012 ft 359 kts 249°
2026-04-23 18:23 55.48724 38.20118 18071 ft 361 kts 250°
2026-04-23 18:24 55.47041 38.11799 16461 ft 357 kts 250°
2026-04-23 18:24 55.46212 38.07704 15857 ft 350 kts 251°
2026-04-23 18:24 55.45417 38.03787 15223 ft 345 kts 251°
2026-04-23 18:25 55.43814 37.95908 14220 ft 330 kts 251°
2026-04-23 18:25 55.43046 37.92149 14074 ft 313 kts 251°
2026-04-23 18:25 55.42328 37.88635 13705 ft 306 kts 252°
2026-04-23 18:25 55.41616 37.85158 13411 ft 297 kts 252°
2026-04-23 18:26 55.40922 37.81776 13088 ft 289 kts 252°
2026-04-23 18:26 55.40247 37.78486 12526 ft 284 kts 252°
2026-04-23 18:26 55.39571 37.75203 11772 ft 286 kts 252°
2026-04-23 18:26 55.38893 37.71909 11030 ft 287 kts 253°
2026-04-23 18:27 55.38215 37.68619 10424 ft 285 kts 253°
2026-04-23 18:27 55.37537 37.65350 9797 ft 283 kts 253°
2026-04-23 18:27 55.37519 37.65263 9786 ft 283 kts 253°
2026-04-23 18:27 55.36935 37.62444 9263 ft 280 kts 253°
2026-04-23 18:28 55.36267 37.59224 8589 ft 279 kts 253°
2026-04-23 18:28 55.35605 37.56038 7961 ft 277 kts 253°
2026-04-23 18:28 55.34946 37.52870 7321 ft 276 kts 253°
2026-04-23 18:28 55.34288 37.49710 6710 ft 275 kts 253°
2026-04-23 18:29 55.33638 37.46602 6369 ft 263 kts 254°
2026-04-23 18:29 55.33021 37.43661 6182 ft 251 kts 254°
2026-04-23 18:29 55.32424 37.40814 6082 ft 249 kts 255°
2026-04-23 18:29 55.32132 37.37864 5948 ft 245 kts 283°
2026-04-23 18:30 55.32711 37.35146 5769 ft 236 kts 310°
2026-04-23 18:30 55.33745 37.32986 5554 ft 228 kts 320°
2026-04-23 18:30 55.34849 37.31005 5344 ft 226 kts 321°
2026-04-23 18:30 55.35943 37.29045 5134 ft 223 kts 321°
2026-04-23 18:31 55.37018 37.27102 4942 ft 220 kts 321°
2026-04-23 18:31 55.38071 37.25177 4772 ft 216 kts 321°
2026-04-23 18:31 55.39102 37.23277 4600 ft 215 kts 321°
2026-04-23 18:31 55.40122 37.21390 4465 ft 217 kts 321°
2026-04-23 18:32 55.41167 37.19449 4299 ft 220 kts 321°
2026-04-23 18:32 55.42217 37.17496 4116 ft 219 kts 321°
2026-04-23 18:32 55.43256 37.15559 3934 ft 215 kts 321°
2026-04-23 18:32 55.44309 37.13678 3777 ft 211 kts 326°
2026-04-23 18:33 55.45417 37.12018 3646 ft 208 kts 328°
2026-04-23 18:33 55.46502 37.10421 3479 ft 202 kts 328°
2026-04-23 18:33 55.47553 37.08863 3303 ft 193 kts 328°
2026-04-23 18:33 55.48555 37.07373 3169 ft 185 kts 328°
2026-04-23 18:34 55.49610 37.06191 3009 ft 173 kts 347°
2026-04-23 18:34 55.50710 37.05574 2908 ft 161 kts 348°
2026-04-23 18:34 55.51739 37.04966 2778 ft 151 kts 347°
2026-04-23 18:34 55.52696 37.04396 2645 ft 139 kts 348°
2026-04-23 18:35 55.53614 37.04423 2544 ft 135 kts 21°
2026-04-23 18:35 55.54370 37.05432 2495 ft 145 kts 55°
2026-04-23 18:35 55.54721 37.07129 2489 ft 145 kts 52°
2026-04-23 18:35 55.55236 37.08621 2492 ft 146 kts 56°
2026-04-23 18:36 55.55611 37.10260 2333 ft 143 kts 59°
2026-04-23 18:36 55.55965 37.11869 2154 ft 139 kts 59°
2026-04-23 18:36 55.56318 37.13457 1952 ft 138 kts 58°
2026-04-23 18:36 55.56674 37.15048 1774 ft 141 kts 60°
2026-04-23 18:37 55.57034 37.16660 1564 ft 142 kts 62°
2026-04-23 18:37 55.57401 37.18302 1353 ft 145 kts 64°
2026-04-23 18:37 55.57775 37.19973 1181 ft 147 kts 63°
2026-04-23 18:37 55.58152 37.21640 984 ft 146 kts 65°
2026-04-23 18:38 55.58520 37.23308 799 ft 146 kts 65°
2026-04-23 18:38 55.58875 37.24919 694 ft 134 kts 67°
2026-04-23 18:38 55.59182 37.26270 685 ft 95 kts 69°
2026-04-23 18:38 55.59373 37.27116 691 ft 52 kts 68°
2026-04-23 18:39 55.59448 37.27369 693 ft 17 kts 52°
2026-04-23 18:39 55.59531 37.27523 690 ft 17 kts 39°
2026-04-23 18:39 55.59621 37.27645 690 ft 9 kts 38°
2026-04-23 18:39 55.59658 37.27697 687 ft 7 kts 37°
2026-04-23 18:40 55.59720 37.27756 690 ft 14 kts 22°
2026-04-23 18:40 55.59817 37.27814 689 ft 15 kts 17°
2026-04-23 18:40 55.59896 37.27860 686 ft 11 kts 18°
2026-04-23 18:40 55.59949 37.27912 693 ft 8 kts 58°
2026-04-23 18:41 55.59979 37.27980 691 ft 6 kts 30°
2026-04-23 18:41 55.60016 37.28003 688 ft 3 kts 18°
2026-04-23 18:41 55.60019 37.28005 689 ft 0 kts 18°